x

Western Caribbean - 195 Nm Wsw Of Negril Jamiaca (42057) Wave Buoy

12:50 - Tue 28th Jun 2016 All times are UTC.

  • Sig Wave height 2.6ft
  • Peak Period 7s
  • Average Period 5s
  • Wind
    9mph
  • Sea Temp 85°f
  • Luft Temp 84°f
  • Sea Pressure 1015.2mb

More Historic Weather Station data

Upgrade to MSW Pro to gain access to the past 30 days of data for over 8000 Wavebouys and Weather Stations around the globe.

Join Pro

Comparision Forecast

View Surf forecast
   
Di 06/28 12:50 2.5ft 7s 5s 9
mph
1015.2mb 85f 84f
11:50 2.5ft 7s 5s 9 11 mph 1014.6mb 85f 83f
10:50 2.5ft 6s 5s 9 11 mph 1014.1mb 85f 83f
9:50 2.5ft 6s 5s 9 11 mph 1013.9mb 85f 83f
8:50 3ft 8s 5s 9 11 mph 1013.5mb 85f 83f
7:50 3ft 7s 5s 11 13 mph 1013.4mb 85f 83f
6:50 3.5ft 6s 5s 9 11 mph 1013.9mb 85f 83f
5:50 3.5ft 7s 5s 9 11 mph 1014.4mb 85f 83f
4:50 3.5ft 7s 5s 9 11 mph 1015.3mb 85f 84f
3:50 3.5ft 6s 5s 13 16 mph 1015.6mb 85f 84f
2:50 3.5ft 7s 5s 13 16 mph 1015.5mb 85f 84f
12:50 3.5ft 7s 5s 13 16 mph 1014.4mb 85f 84f
Mo 06/27 11:50 3.5ft 5s 5s 13 16 mph 1013.5mb 85f 84f
10:50 4ft 7s 5s 13 16 mph 1013mb 85f 84f
9:50 3.5ft 7s 5s 13 16 mph 1013.1mb 85f 84f
8:50 4ft 7s 5s 13 16 mph 1013.9mb 85f 84f
7:50 3.5ft 6s 5s 13
mph
1014.5mb 85f 84f
6:50 4ft 7s 5s 13 18 mph 1015mb 85f 84f
5:50 4ft 6s 5s 13 16 mph 1015.9mb 85f 84f
4:50 3.5ft 5s 5s 13 16 mph 1015.8mb 85f 84f
3:50 4ft 5s 5s 13 18 mph 1015.7mb 84f 84f
2:50 4ft 6s 5s 13 18 mph 1015.6mb 84f 84f
1:50 4ft 7s 5s 13 18 mph 1015.4mb 84f 84f
12:50 4ft 6s 5s 13 16 mph 1014.7mb 84f 84f
11:50 4ft 6s 5s 13 16 mph 1014.1mb 84f 84f
10:50 3.5ft 5s 4s 16 18 mph 1013.7mb 84f 84f
9:50 3.5ft 5s 5s 16 20 mph 1013.7mb 84f 84f
8:50 3.5ft 5s 5s 16 18 mph 1013.7mb 85f 84f
7:50 3.5ft 6s 5s 13 16 mph 1013.6mb 85f 84f
6:50 3.5ft 7s 5s 13 18 mph 1014.1mb 85f 84f
5:50 3.5ft 6s 5s 16 20 mph 1014.9mb 85f 84f
4:50 3.5ft 7s 5s 16 18 mph 1015.4mb 85f 84f
3:50 3.5ft 6s 5s 16 18 mph 1015.3mb 85f 84f